DB0NU-15 Weather Reports


time (UTC)temp
C
wind
direction
speed
KPH
gust
KPH
rain 1hr
cm
rain 24hr
cm
rain mn
cm
humidity
%
barometer
mb
20260502123018 23 141 4.8 11.3 0.00 0.00 0.00 34 1021.6
20260502122114 23 144 3.2 6.4 0.00 0.00 0.00 33 1021.8
20260502120108 22 114 3.2 6.4 0.00 0.00 0.00 34 1022.1
20260502115104 23 128 1.6 6.4 0.00 0.00 0.00 34 1022.1
20260502114101 22 142 4.8 11.3 0.00 0.00 0.00 35 1022.4
20260502113057 22 182 3.2 6.4 0.00 0.00 0.00 33 1022.3
20260502112054 22 146 3.2 9.7 0.00 0.00 0.00 34 1022.5
20260502111050 22 170 3.2 6.4 0.00 0.00 0.00 34 1022.7
20260502110047 22 174 4.8 11.3 0.00 0.00 0.00 35 1022.7
20260502105044 22 160 4.8 9.7 0.00 0.00 0.00 34 1022.8
20260502103037 21 155 4.8 11.3 0.00 0.00 0.00 37 1023.1
20260502102034 21 164 3.2 9.7 0.00 0.00 0.00 39 1023.1
20260502101030 21 152 4.8 9.7 0.00 0.00 0.00 40 1023.3
20260502091110 18 196 4.8 12.9 0.00 0.00 0.00 43 1023.9
20260502070026 15 163 3.2 6.4 0.00 0.00 0.00 48 1024.9
20260502065022 15 158 3.2 6.4 0.00 0.00 0.00 51 1025.0
20260502064019 15 158 1.6 6.4 0.00 0.00 0.00 54 1024.9
20260502063016 14 158 3.2 6.4 0.00 0.00 0.00 55 1025.0
20260502062113 14 147 1.6 3.2 0.00 0.00 0.00 54 1024.9
20260502061109 13 173 3.2 3.2 0.00 0.00 0.00 55 1024.9
20260502060106 13 180 3.2 6.4 0.00 0.00 0.00 55 1025.0
20260502055103 13 189 3.2 3.2 0.00 0.00 0.00 54 1024.9
20260502054059 13 180 1.6 3.2 0.00 0.00 0.00 55 1024.9
20260502053056 13 158 1.6 3.2 0.00 0.00 0.00 55 1024.9
20260502052052 12 158 1.6 3.2 0.00 0.00 0.00 56 1024.8
20260502051049 12 149 1.6 3.2 0.00 0.00 0.00 57 1024.7
20260502050046 11 158 1.6 3.2 0.00 0.00 0.00 59 1024.9
20260502045042 11 158 1.6 3.2 0.00 0.00 0.00 60 1024.9
20260502044039 11 158 1.6 3.2 0.00 0.00 0.00 59 1024.7
20260502043036 11 158 3.2 3.2 0.00 0.00 0.00 59 1024.7
20260502042032 10 158 0.0 3.2 0.00 0.00 0.00 63 1024.8
20260502041029 11 158 1.6 6.4 0.00 0.00 0.00 60 1024.7
20260502040026 11 158 1.6 3.2 0.00 0.00 0.00 60 1024.7
20260502035022 10 158 1.6 3.2 0.00 0.00 0.00 62 1024.8
20260502034019 11 158 1.6 3.2 0.00 0.00 0.00 60 1024.9
20260502033016 11 158 1.6 3.2 0.00 0.00 0.00 60 1024.9
20260502032112 11 158 1.6 3.2 0.00 0.00 0.00 57 1025.0
20260502031109 11 158 3.2 3.2 0.00 0.00 0.00 57 1025.1
20260502025102 11 158 1.6 3.2 0.00 0.00 0.00 59 1025.1
20260502024059 11 158 1.6 3.2 0.00 0.00 0.00 60 1025.1
20260502023055 10 158 0.0 3.2 0.00 0.00 0.00 61 1025.2
20260502022053 11 0.0 3.2 0.00 0.00 0.00 60 1025.2
20260502021049 11 0.0 0.0 0.00 0.00 0.00 59 1025.2
20260502020045 10 0.0 0.0 0.00 0.00 0.00 61 1025.2
20260502015042 10 0.0 0.0 0.00 0.00 0.00 61 1025.3
20260502013035 11 0.0 0.0 0.00 0.00 0.00 58 1025.3
20260502012032 11 0.0 3.2 0.00 0.00 0.00 57 1025.4
20260502011029 12 158 0.0 3.2 0.00 0.00 0.00 56 1025.4
20260502010025 12 158 0.0 3.2 0.00 0.00 0.00 56 1025.4
20260502005022 12 158 1.6 3.2 0.00 0.00 0.00 54 1025.5
20260502003015 12 158 0.0 3.2 0.00 0.00 0.00 55 1025.5
20260502002112 12 158 0.0 3.2 0.00 0.00 0.00 55 1025.5
20260502001109 13 160 1.6 3.2 0.00 0.00 0.00 52 1025.7
20260501235102 13 158 1.6 3.2 0.00 0.00 0.00 51 1025.7
20260501234059 13 167 3.2 6.4 0.00 0.00 0.00 50 1025.8
20260501232052 12 135 1.6 3.2 0.00 0.00 0.00 53 1025.8
20260501231048 12 113 1.6 3.2 0.00 0.00 0.00 53 1025.9
20260501230045 13 113 1.6 3.2 0.00 0.00 0.00 52 1025.9
20260501225041 13 120 1.6 3.2 0.00 0.00 0.00 51 1025.9
20260501224038 13 149 1.6 3.2 0.00 0.00 0.00 50 1026.0
20260501223034 13 158 1.6 3.2 0.00 0.00 0.00 51 1026.2
20260501222031 14 154 1.6 3.2 0.00 0.00 0.00 48 1026.1
20260501220024 14 143 1.6 3.2 0.00 0.00 0.00 47 1026.0
20260501215021 15 139 1.6 3.2 0.00 0.00 0.00 48 1025.9
20260501213115 15 162 1.6 3.2 0.00 0.00 0.00 44 1025.9
20260501212111 16 154 3.2 6.4 0.00 0.00 0.00 43 1025.9
20260501210104 16 187 3.2 3.2 0.00 0.00 0.00 44 1026.0
20260501204057 16 135 1.6 3.2 0.00 0.00 0.00 45 1026.0
20260501203054 16 159 1.6 6.4 0.00 0.00 0.00 45 1026.0
20260501202050 16 173 1.6 3.2 0.00 0.00 0.00 43 1026.0
20260501200044 16 129 3.2 6.4 0.00 0.00 0.00 43 1026.1
20260501194037 16 100 1.6 3.2 0.00 0.00 0.00 43 1026.0
20260501193033 16 104 3.2 6.4 0.00 0.00 0.00 42 1026.0
20260501192030 16 105 1.6 6.4 0.00 0.00 0.00 42 1025.9
20260501191027 17 102 3.2 9.7 0.00 0.00 0.00 42 1026.0
20260501190023 17 85 3.2 6.4 0.00 0.00 0.00 41 1026.0
20260501185020 17 92 1.6 6.4 0.00 0.00 0.00 41 1026.0
20260501184017 17 121 3.2 6.4 0.00 0.00 0.00 42 1025.9
20260501183113 17 96 3.2 6.4 0.00 0.00 0.00 41 1025.9
20260501182110 17 105 3.2 6.4 0.00 0.00 0.00 41 1026.0
20260501181107 17 110 1.6 6.4 0.00 0.00 0.00 41 1026.0
20260501175100 18 106 3.2 6.4 0.00 0.00 0.00 39 1025.9
20260501174056 18 79 1.6 6.4 0.00 0.00 0.00 38 1026.0
20260501173053 18 125 3.2 6.4 0.00 0.00 0.00 38 1026.0
20260501172049 18 113 1.6 6.4 0.00 0.00 0.00 38 1026.0
20260501171046 18 92 1.6 6.4 0.00 0.00 0.00 38 1026.0
20260501170042 19 98 1.6 6.4 0.00 0.00 0.00 38 1026.0
20260501165039 19 127 3.2 6.4 0.00 0.00 0.00 36 1026.1
20260501164036 19 113 1.6 6.4 0.00 0.00 0.00 36 1026.2
20260501163032 19 98 3.2 6.4 0.00 0.00 0.00 36 1026.3
20260501162029 19 135 1.6 3.2 0.00 0.00 0.00 37 1026.1
20260501161026 19 124 1.6 6.4 0.00 0.00 0.00 36 1026.4
20260501160022 20 99 3.2 6.4 0.00 0.00 0.00 36 1026.5
20260501154016 19 74 4.8 12.9 0.00 0.00 0.00 36 1026.6
20260501153112 20 86 3.2 6.4 0.00 0.00 0.00 35 1026.7
20260501152109 20 106 3.2 11.3 0.00 0.00 0.00 35 1026.8
20260501151105 21 23 0.0 3.2 0.00 0.00 0.00 35 1026.9
20260501145059 20 82 4.8 9.7 0.00 0.00 0.00 35 1027.2
20260501144055 20 62 4.8 12.9 0.00 0.00 0.00 35 1027.3
20260501143052 20 60 6.4 12.9 0.00 0.00 0.00 35 1027.3
20260501142048 20 122 3.2 6.4 0.00 0.00 0.00 37 1027.3
20260501141045 21 333 1.6 6.4 0.00 0.00 0.00 36 1027.4
20260501140042 21 52 1.6 3.2 0.00 0.00 0.00 34 1027.5